Home   Weather   Alwar   Past weeks

Flag for India Past Weather in Alwar, Rajasthan, India — Yesterday and Last 2 Weeks

Now
55 °F

Passing clouds.


Feels Like: 55 °F
Forecast: 47 / 73 °F
Wind: No wind

Location: Jaipur / Sanganer

Current Time: Jan 21, 2017 at 1:51:39 am

Latest Report: Jan 21, 2017 at 1:00 am


Visibility: 2 mi

Pressure: 30.15 "Hg

Humidity: 47%

Dew Point: 36 °F

Location of AlwarLocation

Past Weather in Alwar — Graph

°F

Alwar Temperature Yesterday

Maximum temperature yesterday: 72 °F (at 3:00 pm)
Minimum temperature yesterday: 46 °F (at 7:00 am)
Average temperature yesterday: 59 °F

High & Low Weather Summary for the Past Weeks

 TemperatureHumidityPressure
High73 °F (Jan 6, 2:00 pm)100% (Jan 6, 5:00 am)30.30 "Hg (Jan 6, 5:00 am)
Low39 °F (Jan 12, 5:30 am)15% (Jan 13, 5:00 pm)27.00 "Hg (Jan 6, 7:30 pm)
Average58 °F52%30.05 "Hg
* Reported Jan 6 12:30 am — Jan 21 12:30 am, Alwar, Weather by CustomWeather, © 2017

Note: Actual official high and low records may vary slightly from our data, if they occured in-between our weather recording intervals... More about our weather records

Advertising

Alwar Weather History for the Previous 24 Hours

Scroll right to see more
 ConditionsComfort  
Time TempWeatherWind HumidityBarometerVisibility
12:30 am
Sat, Jan 21
57 °FPassing clouds.No wind44%30.15 "Hg2 mi
12:00 am57 °FPassing clouds.No wind44%30.15 "Hg1 mi
11:30 pm
Fri, Jan 20
57 °FPassing clouds.No wind44%30.15 "Hg1 mi
11:00 pm57 °FPassing clouds.No wind44%30.15 "Hg1 mi
10:30 pm59 °FPassing clouds.No wind36%30.18 "Hg1 mi
10:00 pm59 °FPassing clouds.No wind42%30.18 "Hg1 mi
9:30 pm59 °FPassing clouds.No wind45%30.18 "Hg1 mi
9:00 pm61 °FPassing clouds.No wind42%30.15 "Hg1 mi
8:30 pm61 °FPassing clouds.No wind42%30.15 "Hg1 mi
8:00 pm63 °FPassing clouds.No wind37%30.15 "Hg2 mi
7:30 pm64 °FPassing clouds.No wind34%30.15 "Hg2 mi
7:00 pm66 °FPassing clouds.No wind32%30.12 "Hg2 mi
6:30 pm66 °FPassing clouds.No wind30%30.12 "Hg2 mi
6:00 pm68 °FScattered clouds.1 mph28%30.12 "Hg3 mi
5:30 pm70 °FScattered clouds.1 mph25%30.12 "Hg3 mi
5:00 pm70 °FScattered clouds.1 mph23%30.12 "Hg3 mi
4:30 pm70 °FScattered clouds.No wind23%30.12 "Hg3 mi
4:00 pm72 °FScattered clouds.No wind20%30.12 "Hg3 mi
3:30 pm70 °FScattered clouds.1 mph20%30.15 "Hg3 mi
3:00 pm72 °FScattered clouds.1 mph20%30.15 "Hg3 mi
2:30 pm70 °FScattered clouds.1 mph20%30.15 "Hg3 mi
2:00 pm70 °FScattered clouds.1 mph23%30.18 "Hg3 mi
1:00 pm68 °FScattered clouds.No wind26%30.21 "Hg3 mi
12:30 pm66 °FScattered clouds.No wind28%30.24 "Hg3 mi
12:00 pm64 °FScattered clouds.1 mph34%30.24 "Hg3 mi
11:30 am64 °FScattered clouds.No wind37%30.27 "Hg3 mi
10:30 am59 °FHaze.No wind45%30.27 "Hg2 mi
10:00 am59 °FHaze.No wind48%30.27 "Hg2 mi
9:30 am57 °FHaze.No wind51%30.27 "Hg2 mi
9:00 am55 °FHaze.No wind55%30.24 "Hg2 mi
8:30 am52 °FHaze.No wind67%30.24 "Hg2 mi
8:00 am48 °FHaze.No wind76%30.24 "Hg2 mi
7:30 am48 °FHaze.No wind76%30.24 "Hg2 mi
7:00 am46 °FHaze.7 mph76%30.21 "Hg2 mi
6:30 am48 °FHaze.5 mph66%30.21 "Hg2 mi
6:00 am48 °FHaze.No wind66%30.18 "Hg2 mi
5:30 am48 °FHaze.No wind66%30.18 "Hg2 mi
5:00 am48 °FHaze.No wind66%30.18 "Hg2 mi
4:30 am52 °FHaze.No wind54%30.18 "Hg2 mi
4:00 am52 °FHaze.1 mph54%30.18 "Hg2 mi
3:30 am52 °FHaze.5 mph54%30.21 "Hg2 mi
3:00 am52 °FHaze.5 mph54%30.21 "Hg2 mi
2:30 am55 °FHaze.3 mph44%30.21 "Hg2 mi
2:00 am55 °FHaze.7 mph41%30.21 "Hg2 mi
1:30 am57 °FHaze.6 mph36%30.21 "Hg2 mi
1:00 am57 °FHaze.6 mph36%30.21 "Hg2 mi
Weather by CustomWeather, © 2017

See weather overviewHow to use our weather pages